Location: Newark
(15.4608°S, 41.1635°W)
Time: 02:11:24
(UTC+00:00)

XW-2B - Pass Details

Date: 25 February 2020
Orbit: 509 x 526 km, 97.5° (Epoch: 06 April)

Event Time Altitude Azimuth Distance (km) Brightness Sun altitude
Rises 07:37:17 0° 34° (NE) 2,638 ? -16.5°
Reaches altitude 10° 07:39:37 10° 47° (NE) 1,759 ? -16.0°
Maximum altitude 07:42:47 25° 104° (ESE) 1,078 ? -15.3°
Drops below altitude 10° 07:45:59 10° 161° (SSE) 1,779 ? -14.5°
Sets 07:48:21 0° 173° (S) 2,675 ? -14.0°
